Regional Weather Roundup
Issued by NWS

Home | Current Version | Previous Version | Graphics & Text | Print | Product List | Glossary On
Versions: 1 2 3 4 5 6 7 8 9 10 11 12 13 14 15 16 17 18 19 20 21 22 23 24 25 26 27
000
ASUS45 KSLC 310510
RWRUT

UTAH REGIONAL WEATHER ROUNDUP
NATIONAL WEATHER SERVICE SALT LAKE CITY UT
1100 PM MDT MON MAY 30 2016

UTZ001>011-023>025-310600-

NORTHERN UTAH

CITY           SKY/WX    TMP DP  RH WIND       PRES   REMARKS
BRIGHAM CITY     N/A     61  33  35 NW10      30.08R
HILL AFB       CLEAR     61  41  47 NW2       30.09R
LOGAN          CLEAR     54  40  59 CALM      30.09R
OGDEN          CLEAR     60  40  47 N6        30.07R
PROVO AIRPORT  PTCLDY    66  39  37 N7        30.06R
SALT LAKE CITY PTCLDY    66  41  40 SE5       30.05R
VERNAL         CLOUDY    61  34  36 E8        30.06R
WENDOVER       CLEAR     68  36  30 NE10      30.09R
HEBER CITY     PTCLDY    48  34  57 CALM      30.11S
WEST JORDAN    CLEAR     63  39  42 NW7       30.08R

$$

UTZ012>022-026-027-310600-

SOUTHERN/CENTRAL UTAH

CITY           SKY/WX    TMP DP  RH WIND       PRES   REMARKS
BLANDING       PTCLDY    57  25  30 N5        30.12R
BRYCE CANYON   CLEAR     40  32  73 SW6       30.22R
CEDAR CITY     CLEAR     54  32  43 NW6       30.07R
DELTA          PTCLDY    61  34  36 NE7       30.07R
HANKSVILLE     CLEAR     64  30  27 CALM      30.00R
MILFORD        CLEAR     62  29  28 N10       30.06R
MOAB/CYNLANDS  PTCLDY    70  30  22 SW8       29.95R
PRICE          PTCLDY    61  29  29 N6        30.09R
ST GEORGE      PTCLDY    75  34  22 NW7       29.92R

$$

REGIONAL REPORTS     COLORADO/ARIZONA

CITY           SKY/WX    TMP DP  RH WIND       PRES   REMARKS
CRAIG, CO      CLOUDY    52  38  58 SE3       30.13R
GRAND JUNCTION CLOUDY    61  37  41 SE7       30.02R
RIFLE          CLOUDY    53  35  50 SE8       30.10R
MONTROSE       CLOUDY    57  33  40 SE9       30.10R
CORTEZ         CLEAR     53  31  42 E3        30.06R
PAGE, AZ       PTCLDY    73  32  22 W3        29.97R
GRAND CANYON   PTCLDY    47  27  45 E3        30.13R
KINGMAN        PTCLDY    71  25  17 CALM      29.93R
FLAGSTAFF      PTCLDY    48  27  44 SW3       30.15R

$$

REGIONAL REPORTS    NEVADA/IDAHO/WYOMING

CITY           SKY/WX    TMP DP  RH WIND       PRES   REMARKS
LAS VEGAS, NV  MOCLDY    89  30  12 S3        29.78R
ELY            CLEAR     54  32  43 NW9       30.17R
ELKO           CLEAR     59  36  42 CALM      30.13R
POCATELLO, ID  CLEAR     58  28  32 S12       30.10R
BURLEY         CLEAR     55  33  43 SW10      30.08R
EVANSTON, WY   CLEAR     52  37  56 VRB5      30.20R
ROCK SPRINGS   CLOUDY    52  30  43 NW8       30.17R
KEMMERER         N/A     45  30  57 NW10      30.21R

$$




USA.gov is the U.S. government's official web portal to all federal, state and local government web resources and services.